Tracking 30986 objects as of 9-Jul-2025
HD Live streaming from Space Station
objects crossing your sky now

ARIANE 1 DEB

Track ARIANE 1 DEB now!
10-day predictions


NORAD ID: 39107
Int'l Code: 1986-019VV
Perigee: 757.1 km
Apogee: 973.0 km
Inclination: 98.7 °
Period: 102.1 minutes
Semi major axis: 7236 km
RCS: 0.0163 m2 (small)
Launch date: February 22, 1986
Source: France (FR)
Launch site: FRENCH GUIANA (FRGUI)

Note: This is SATELLITE DEBRIS
Your satellite tracking list
Your tracking list is empty




NASA's NSSDC Master Catalog

Two Line Element Set (TLE):
1 39107U 86019VV  25188.83030666  .00000604  00000-0  32847-3 0  9997
2 39107  98.6802 219.5592 0149187 265.0916  93.3209 14.10434867616172
Source of the keplerian elements: AFSPC